Retour au catalogue

CZ-6A DEB

ActifSSO
NORAD 56640·DEBRIS·🇨🇳 China

Lancé Nov 11, 2022 depuis Taiyuan Satellite Launch Center

Loading…

Prochains Passages (prochaines 24 heures)

TLE

VieillissantSource: Space-Track

Époque: Sep 9, 2026, 14:34 UTC

1 56640U 22151AFQ 26252.60724841  .00000404  00000-0  31008-3 0  9994
2 56640  98.8008 199.4992 0129952 203.2366 156.2888 13.94799576176641

Suivez CZ-6A DEB en temps réel avec AllMySat

Download on the App Store